Location: Asni�res
(49.1337°N, 2.3555°E)
Time: 03:59:37
(UTC+00:00)

Cosmos 1626 Rocket - Pass Details

Date: 29 May 2022
Orbit: 602 x 631 km, 82.5° (Epoch: 04 July)

Event Time Altitude Azimuth Distance (km) Brightness Sun altitude
Rises 03:01:43 0° 172° (S) 2,886 6.6 -7.2°
Reaches altitude 10° 03:03:59 10° 166° (SSE) 1,981 5.9 -6.9°
Maximum altitude 03:08:11 46° 94° (E) 829 4.6 -6.4°
Drops below altitude 10° 03:12:23 10° 21° (NNE) 1,979 7.4 -5.9°
Sets 03:14:39 0° 15° (NNE) 2,885 8.1 -5.7°
